KG0HG Weather Reports


Display with metric or nautical units.
time (UTC)temp
F
wind
direction
speed
MPH
gust
MPH
rain 1hr
in
rain 24hr
in
rain mn
in
humidity
%
barometer
mb
20260906170429 93 150 0.0 2.0 0.00 0.00 0.00 60 1016.3
20260906165925 93 153 0.0 2.0 0.00 0.00 0.00 58 1016.2
20260906165419 93 153 0.0 1.0 0.00 0.00 0.00 61 1016.4
20260906164914 92 153 0.0 2.0 0.00 0.00 0.00 62 1016.3
20260906164413 91 156 0.0 0.0 0.00 0.00 0.00 64 1016.5
20260906163909 92 158 0.0 0.0 0.00 0.00 0.00 63 1016.5
20260906163405 91 158 0.0 0.0 0.00 0.00 0.00 64 1016.3
20260906162903 91 158 0.0 1.0 0.00 0.00 0.00 65 1016.4
20260906162401 91 158 0.0 1.0 0.00 0.00 0.00 64 1016.4
20260906161856 91 158 0.0 1.0 0.00 0.00 0.00 66 1016.4
20260906161350 90 154 0.0 0.0 0.00 0.00 0.00 66 1016.3
20260906160849 90 154 0.0 0.0 0.00 0.00 0.00 66 1016.3
20260906160343 89 154 0.0 1.0 0.00 0.00 0.00 68 1016.4
20260906155841 88 154 0.0 1.0 0.00 0.00 0.00 68 1016.3
20260906155335 88 159 0.0 2.0 0.00 0.00 0.00 69 1016.2
20260906154831 88 160 0.0 2.0 0.00 0.00 0.00 71 1016.3
20260906154320 87 161 0.0 3.0 0.00 0.00 0.00 70 1016.2
20260906153818 87 152 1.0 2.0 0.00 0.00 0.00 71 1016.3
20260906153313 87 152 0.0 0.0 0.00 0.00 0.00 71 1016.2
20260906152808 87 152 0.0 0.0 0.00 0.00 0.00 72 1016.3
20260906152306 87 152 0.0 0.0 0.00 0.00 0.00 72 1016.2
20260906151802 86 153 1.0 2.0 0.00 0.00 0.00 72 1016.2
20260906151258 86 130 0.0 2.0 0.00 0.00 0.00 73 1016.3
20260906150753 85 129 1.0 1.0 0.00 0.00 0.00 74 1016.2
20260906150249 85 129 0.0 0.0 0.00 0.00 0.00 75 1016.2
20260906145748 84 129 0.0 1.0 0.00 0.00 0.00 76 1016.3
20260906145246 84 129 0.0 0.0 0.00 0.00 0.00 76 1016.2
20260906144742 84 129 0.0 0.0 0.00 0.00 0.00 76 1016.2
20260906144237 84 129 0.0 0.0 0.00 0.00 0.00 77 1016.5
20260906143736 83 126 1.0 1.0 0.00 0.00 0.00 78 1016.4
20260906143233 83 126 0.0 2.0 0.00 0.00 0.00 78 1016.3
20260906142732 82 114 0.0 0.0 0.00 0.00 0.00 79 1016.2
20260906142228 82 113 0.0 1.0 0.00 0.00 0.00 80 1016.0
20260906141727 81 44 0.0 0.0 0.00 0.00 0.00 81 1016.3
20260906141222 81 44 0.0 0.0 0.00 0.00 0.00 82 1016.0
20260906140721 80 44 0.0 0.0 0.00 0.00 0.00 83 1016.6
20260906140216 80 44 0.0 1.0 0.00 0.00 0.00 84 1016.5
20260906135713 79 81 0.0 1.0 0.00 0.00 0.00 84 1016.4
20260906135209 79 81 0.0 2.0 0.00 0.00 0.00 85 1016.5
20260906134704 78 84 1.0 1.0 0.00 0.00 0.00 85 1016.4
20260906134159 78 86 0.0 0.0 0.00 0.00 0.00 86 1016.2
20260906133655 78 85 0.0 0.0 0.00 0.00 0.00 87 1016.0
20260906133150 77 85 0.0 0.0 0.00 0.00 0.00 87 1016.0
20260906132645 77 85 0.0 0.0 0.00 0.00 0.00 89 1015.9
20260906132141 76 85 0.0 0.0 0.00 0.00 0.00 90 1015.8
20260906131636 75 85 0.0 0.0 0.00 0.00 0.00 92 1015.8
20260906131131 75 85 0.0 1.0 0.00 0.00 0.00 94 1016.0
20260906130627 74 91 1.0 1.0 0.00 0.00 0.00 95 1015.7
20260906130121 74 91 0.0 1.0 0.00 0.00 0.00 96 1015.7
20260906125619 74 91 0.0 0.0 0.00 0.00 0.00 97 1016.0
20260906125112 74 91 0.0 0.0 0.00 0.00 0.00 97 1015.6
20260906124608 73 91 0.0 1.0 0.00 0.00 0.00 97 1015.6
20260906124103 73 91 0.0 0.0 0.00 0.00 0.00 97 1015.5
20260906123602 73 91 0.0 0.0 0.00 0.00 0.00 97 1015.5
20260906123057 73 91 0.0 0.0 0.00 0.00 0.00 97 1015.6
20260906122556 73 91 0.0 0.0 0.00 0.00 0.00 97 1015.4
20260906122053 73 91 0.0 0.0 0.00 0.00 0.00 97 1015.5
20260906121548 73 91 0.0 0.0 0.00 0.00 0.00 97 1015.4
20260906121045 73 91 0.0 0.0 0.00 0.00 0.00 97 1015.4
20260906120540 73 91 0.0 0.0 0.00 0.00 0.00 97 1015.2
20260906120037 73 91 0.0 0.0 0.00 0.00 0.00 97 1015.3
20260906115536 73 91 0.0 0.0 0.00 0.00 0.00 97 1015.3
20260906115032 73 91 0.0 0.0 0.00 0.00 0.00 97 1015.2
20260906114526 73 91 0.0 0.0 0.00 0.00 0.00 97 1015.0
20260906114022 73 91 0.0 0.0 0.00 0.00 0.00 97 1015.1
20260906113520 73 91 0.0 0.0 0.00 0.00 0.00 97 1015.1
20260906113016 73 91 0.0 0.0 0.00 0.00 0.00 97 1014.9
20260906112511 73 91 0.0 0.0 0.00 0.00 0.00 97 1015.0
20260906112008 73 91 0.0 0.0 0.00 0.00 0.00 97 1014.8
20260906111507 73 91 0.0 0.0 0.00 0.00 0.00 97 1014.8
20260906111002 73 91 0.0 0.0 0.00 0.00 0.00 97 1014.8
20260906110456 73 91 0.0 0.0 0.00 0.00 0.00 96 1014.7
20260906105955 74 91 0.0 0.0 0.00 0.00 0.00 96 1014.9
20260906105452 74 91 0.0 0.0 0.00 0.00 0.00 96 1014.8
20260906104947 74 91 0.0 0.0 0.00 0.00 0.00 96 1014.7
20260906104446 74 91 0.0 0.0 0.00 0.00 0.00 96 1014.9
20260906103945 74 91 0.0 0.0 0.00 0.00 0.00 96 1014.7
20260906103443 74 91 0.0 0.0 0.00 0.00 0.00 96 1014.8
20260906102939 74 91 0.0 0.0 0.00 0.00 0.00 96 1014.8
20260906102438 74 91 0.0 0.0 0.00 0.00 0.00 96 1014.7
20260906101933 74 91 0.0 0.0 0.00 0.00 0.00 96 1014.8
20260906101428 74 91 0.0 0.0 0.00 0.00 0.00 96 1015.0
20260906100924 74 91 0.0 0.0 0.00 0.00 0.00 96 1014.9
20260906100418 74 91 0.0 0.0 0.00 0.00 0.00 96 1014.8
20260906095912 74 91 0.0 0.0 0.00 0.00 0.00 96 1014.7
20260906095409 74 91 0.0 0.0 0.00 0.00 0.00 95 1014.5
20260906094907 74 91 0.0 0.0 0.00 0.00 0.00 95 1014.6
20260906094403 74 91 0.0 0.0 0.00 0.00 0.00 95 1014.9
20260906093859 74 91 0.0 0.0 0.00 0.00 0.00 95 1014.3
20260906093355 74 91 0.0 0.0 0.00 0.00 0.00 95 1014.4
20260906092849 74 91 0.0 0.0 0.00 0.00 0.00 95 1014.6
20260906092344 75 91 0.0 0.0 0.00 0.00 0.00 95 1014.2
20260906091839 75 91 0.0 0.0 0.00 0.00 0.00 95 1014.4
20260906091335 75 91 0.0 0.0 0.00 0.00 0.00 95 1014.2
20260906090832 75 91 0.0 0.0 0.00 0.00 0.00 95 1014.4
20260906090331 75 91 0.0 0.0 0.00 0.00 0.00 95 1014.4
20260906085830 75 91 0.0 0.0 0.00 0.00 0.00 94 1014.2
20260906085324 75 91 0.0 0.0 0.00 0.00 0.00 94 1014.1
20260906084819 75 91 0.0 0.0 0.00 0.00 0.00 94 1014.2
20260906084319 75 91 0.0 0.0 0.00 0.00 0.00 94 1014.1
20260906083813 75 91 0.0 0.0 0.00 0.00 0.00 94 1014.3
20260906083309 75 91 0.0 0.0 0.00 0.00 0.00 94 1014.2
20260906082803 75 91 0.0 0.0 0.00 0.00 0.00 94 1014.1
20260906082258 75 91 0.0 0.0 0.00 0.00 0.00 94 1014.2
20260906081754 75 91 0.0 0.0 0.00 0.00 0.00 94 1014.2
20260906081250 75 91 0.0 0.0 0.00 0.00 0.00 93 1014.2
20260906080745 76 91 0.0 0.0 0.00 0.00 0.00 93 1014.2
20260906080241 76 91 0.0 0.0 0.00 0.00 0.00 93 1014.2
20260906075735 76 91 0.0 0.0 0.00 0.00 0.00 93 1014.2
20260906075230 76 91 0.0 0.0 0.00 0.00 0.00 93 1014.0
20260906074725 76 91 0.0 0.0 0.00 0.00 0.00 93 1014.0
20260906074224 76 91 0.0 0.0 0.00 0.00 0.00 93 1014.0
20260906073719 76 91 0.0 0.0 0.00 0.00 0.00 93 1013.9
20260906073214 76 91 0.0 0.0 0.00 0.00 0.00 93 1013.8
20260906072710 76 91 0.0 0.0 0.00 0.00 0.00 93 1013.9
20260906072205 76 91 0.0 0.0 0.00 0.00 0.00 93 1014.0
20260906071701 76 91 0.0 0.0 0.00 0.00 0.00 93 1014.1
20260906071201 76 91 0.0 0.0 0.00 0.00 0.00 93 1014.1
20260906070658 76 91 0.0 0.0 0.00 0.00 0.00 93 1014.1
20260906070153 76 91 0.0 0.0 0.00 0.00 0.00 93 1014.3
20260906065652 76 91 0.0 0.0 0.00 0.00 0.00 93 1014.4
20260906065148 76 91 0.0 0.0 0.00 0.00 0.00 93 1014.5
20260906064643 76 91 0.0 0.0 0.00 0.00 0.00 93 1014.4
20260906064139 76 91 0.0 0.0 0.00 0.00 0.00 93 1014.5
20260906063634 76 91 0.0 0.0 0.00 0.00 0.00 93 1014.4
20260906063129 76 91 0.0 0.0 0.00 0.00 0.00 93 1014.5
20260906062625 76 91 0.0 0.0 0.00 0.00 0.00 93 1014.4
20260906062123 77 91 0.0 0.0 0.00 0.00 0.00 93 1014.5
20260906061620 77 91 0.0 0.0 0.00 0.00 0.00 93 1014.3
20260906061119 77 91 0.0 0.0 0.00 0.00 0.00 93 1014.3
20260906060616 77 91 0.0 0.0 0.00 0.00 0.00 93 1014.6
20260906060109 77 91 0.0 0.0 0.00 0.00 0.00 92 1014.5
20260906055603 77 91 0.0 0.0 0.00 0.00 0.00 92 1014.3
20260906055059 77 91 0.0 0.0 0.00 0.00 0.00 92 1014.3
20260906054558 77 91 0.0 0.0 0.00 0.00 0.00 92 1014.6
20260906054054 77 91 0.0 0.0 0.00 0.00 0.00 92 1014.3
20260906053550 77 91 0.0 0.0 0.00 0.00 0.00 91 1014.7
20260906053046 78 91 0.0 0.0 0.00 0.00 0.00 91 1014.6
20260906052541 78 91 0.0 0.0 0.00 0.00 0.00 91 1014.5
20260906052038 78 91 0.0 0.0 0.00 0.00 0.00 91 1014.3
20260906051533 78 91 0.0 0.0 0.00 0.00 0.00 91 1014.4
20260906051029 78 91 0.0 0.0 0.00 0.00 0.00 90 1014.4
20260906050524 78 91 0.0 0.0 0.00 0.00 0.00 90 1014.2
20260906050019 78 91 0.0 0.0 0.00 0.00 0.00 90 1014.4
20260906045517 78 91 0.0 0.0 0.00 0.00 0.00 90 1014.5
20260906045013 79 91 0.0 0.0 0.00 0.00 0.00 89 1014.4
20260906044508 79 91 0.0 0.0 0.00 0.00 0.00 89 1014.5
20260906044004 79 91 0.0 0.0 0.00 0.00 0.00 89 1014.5
20260906043459 79 91 0.0 0.0 0.00 0.00 0.00 88 1014.4
20260906042955 79 91 0.0 0.0 0.00 0.00 0.00 88 1014.3
20260906042454 80 91 0.0 0.0 0.00 0.00 0.00 88 1014.4
20260906041954 80 91 0.0 0.0 0.00 0.00 0.00 87 1014.3
20260906041450 80 91 0.0 0.0 0.00 0.00 0.00 87 1014.2
20260906040949 80 91 0.0 0.0 0.00 0.00 0.00 87 1014.2
20260906040444 80 91 0.0 0.0 0.00 0.00 0.00 86 1014.4
20260906035940 80 91 0.0 0.0 0.00 0.00 0.00 86 1014.2
20260906035435 80 91 0.0 0.0 0.00 0.00 0.00 86 1014.1
20260906034931 80 91 0.0 0.0 0.00 0.00 0.00 85 1014.3
20260906034425 81 91 0.0 0.0 0.00 0.00 0.00 84 1014.2
20260906033921 81 91 0.0 0.0 0.00 0.00 0.00 84 1014.0
20260906033421 81 91 0.0 0.0 0.00 0.00 0.00 83 1014.0
20260906032917 81 91 0.0 0.0 0.00 0.00 0.00 82 1014.1
20260906032413 82 91 0.0 0.0 0.00 0.00 0.00 81 1013.9
20260906031907 82 91 0.0 0.0 0.00 0.00 0.00 80 1013.8
20260906031403 82 91 0.0 0.0 0.00 0.00 0.00 79 1013.8
20260906030858 82 91 0.0 0.0 0.00 0.00 0.00 78 1013.9
20260906030358 82 91 0.0 0.0 0.00 0.00 0.00 79 1013.8
20260906025853 82 91 0.0 0.0 0.00 0.00 0.00 79 1013.7
20260906025347 82 91 0.0 0.0 0.00 0.00 0.00 79 1013.6
20260906024846 83 91 0.0 0.0 0.00 0.00 0.00 78 1013.5
20260906024345 83 91 0.0 0.0 0.00 0.00 0.00 75 1013.5
20260906023841 84 91 0.0 0.0 0.00 0.00 0.00 74 1013.6
20260906023337 84 91 0.0 0.0 0.00 0.00 0.00 73 1013.5
20260906022831 84 91 0.0 0.0 0.00 0.00 0.00 73 1013.7
20260906022327 84 91 0.0 0.0 0.00 0.00 0.00 71 1013.4
20260906021823 85 91 0.0 0.0 0.00 0.00 0.00 71 1013.1
20260906021322 85 91 0.0 0.0 0.00 0.00 0.00 71 1013.3
20260906020822 85 91 0.0 0.0 0.00 0.00 0.00 70 1013.2
20260906020321 86 91 0.0 0.0 0.00 0.00 0.00 69 1013.2
20260906015816 86 91 0.0 0.0 0.00 0.00 0.00 68 1013.1
20260906015314 86 91 0.0 0.0 0.00 0.00 0.00 68 1013.1
20260906014809 86 91 0.0 0.0 0.00 0.00 0.00 67 1012.9
20260906014305 87 91 0.0 0.0 0.00 0.00 0.00 67 1012.9
20260906013800 87 91 0.0 0.0 0.00 0.00 0.00 66 1012.8
20260906013255 87 91 0.0 0.0 0.00 0.00 0.00 65 1012.9
20260906012751 88 91 0.0 0.0 0.00 0.00 0.00 64 1012.8
20260906012246 88 91 0.0 0.0 0.00 0.00 0.00 64 1012.5
20260906011741 89 91 0.0 0.0 0.00 0.00 0.00 63 1012.6
20260906011241 89 91 0.0 0.0 0.00 0.00 0.00 62 1012.8
20260906010736 89 91 0.0 0.0 0.00 0.00 0.00 62 1012.8
20260906010232 89 91 0.0 0.0 0.00 0.00 0.00 61 1012.7
20260906005727 89 91 0.0 0.0 0.00 0.00 0.00 61 1012.7
20260906005220 89 91 0.0 0.0 0.00 0.00 0.00 61 1012.7
20260906004720 89 91 0.0 0.0 0.00 0.00 0.00 60 1012.8
20260906004215 90 120 0.0 0.0 0.00 0.00 0.00 60 1012.5
20260906003710 90 120 0.0 0.0 0.00 0.00 0.00 60 1012.4
20260906003205 90 120 0.0 0.0 0.00 0.00 0.00 59 1012.7
20260906002659 91 120 0.0 0.0 0.00 0.00 0.00 58 1012.8
20260906002149 91 120 0.0 0.0 0.00 0.00 0.00 58 1012.5
20260906001644 91 120 0.0 0.0 0.00 0.00 0.00 57 1012.6
20260906001144 92 120 0.0 0.0 0.00 0.00 0.00 57 1012.7
20260906000640 93 120 0.0 0.0 0.00 0.00 0.00 56 1012.6
20260906000135 93 120 0.0 0.0 0.00 0.00 0.00 55 1012.4
20260905235633 93 120 0.0 0.0 0.00 0.00 0.00 54 1012.6
20260905235129 94 120 0.0 0.0 0.00 0.00 0.00 55 1012.4
20260905234624 95 120 0.0 0.0 0.00 0.00 0.00 54 1012.5
20260905234120 95 120 0.0 0.0 0.00 0.00 0.00 52 1012.5
20260905233614 95 120 0.0 0.0 0.00 0.00 0.00 52 1012.3
20260905233109 96 120 0.0 0.0 0.00 0.00 0.00 51 1012.6
20260905232604 96 120 0.0 0.0 0.00 0.00 0.00 49 1012.5
20260905232059 97 120 0.0 0.0 0.00 0.00 0.00 49 1012.4
20260905231554 97 120 0.0 1.0 0.00 0.00 0.00 49 1012.6
20260905231051 97 120 0.0 0.0 0.00 0.00 0.00 48 1012.3
20260905230550 97 120 0.0 1.0 0.00 0.00 0.00 47 1012.2
20260905230048 97 117 0.0 1.0 0.00 0.00 0.00 49 1012.5
20260905225543 97 135 0.0 1.0 0.00 0.00 0.00 47 1012.3
20260905225038 98 135 0.0 1.0 0.00 0.00 0.00 47 1012.1
20260905224532 98 135 0.0 2.0 0.00 0.00 0.00 47 1012.4
20260905224032 98 135 1.0 1.0 0.00 0.00 0.00 47 1012.4
20260905223530 98 135 0.0 1.0 0.00 0.00 0.00 47 1012.2
20260905223025 98 134 0.0 3.0 0.00 0.00 0.00 47 1012.3
20260905222525 98 132 1.0 1.0 0.00 0.00 0.00 46 1012.3
20260905222020 99 135 1.0 2.0 0.00 0.00 0.00 46 1012.5
20260905221517 98 133 0.0 0.0 0.00 0.00 0.00 47 1012.3
20260905221013 98 133 0.0 2.0 0.00 0.00 0.00 47 1012.5
20260905220509 98 81 0.0 0.0 0.00 0.00 0.00 47 1012.6
20260905220004 98 82 0.0 1.0 0.00 0.00 0.00 46 1012.7
20260905215458 98 82 0.0 2.0 0.00 0.00 0.00 46 1012.7
20260905214954 98 35 1.0 1.0 0.00 0.00 0.00 47 1012.9
20260905214449 98 123 1.0 1.0 0.00 0.00 0.00 46 1012.9
20260905213944 98 24 1.0 2.0 0.00 0.00 0.00 47 1012.8
20260905213440 98 356 2.0 2.0 0.00 0.00 0.00 47 1013.0
20260905212935 98 102 0.0 1.0 0.00 0.00 0.00 48 1013.1
20260905212430 98 349 1.0 5.0 0.00 0.00 0.00 47 1013.1
20260905211929 98 130 1.0 3.0 0.00 0.00 0.00 47 1013.1
20260905211425 98 107 1.0 2.0 0.00 0.00 0.00 48 1013.4
20260905210920 98 27 2.0 3.0 0.00 0.00 0.00 47 1013.2
20260905210415 98 126 0.0 2.0 0.00 0.00 0.00 48 1013.3
20260905205915 98 171 2.0 2.0 0.00 0.00 0.00 48 1013.1
20260905205410 98 113 1.0 2.0 0.00 0.00 0.00 48 1013.5
20260905204908 96 85 1.0 2.0 0.00 0.00 0.00 47 1013.3
20260905204405 98 345 1.0 3.0 0.00 0.00 0.00 49 1013.3
20260905203903 97 344 1.0 2.0 0.00 0.00 0.00 49 1013.4
20260905203359 98 139 1.0 3.0 0.00 0.00 0.00 48 1013.5
20260905202854 98 49 0.0 2.0 0.00 0.00 0.00 48 1013.4
20260905202349 98 117 2.0 2.0 0.00 0.00 0.00 48 1013.6
20260905201844 97 138 0.0 2.0 0.00 0.00 0.00 51 1013.7
20260905201340 96 164 0.0 1.0 0.00 0.00 0.00 49 1013.7
20260905200834 97 162 3.0 5.0 0.00 0.00 0.00 49 1013.8
20260905200331 97 104 0.0 1.0 0.00 0.00 0.00 49 1013.8
20260905195827 97 72 0.0 3.0 0.00 0.00 0.00 49 1013.9
20260905195323 98 310 0.0 2.0 0.00 0.00 0.00 48 1013.9
20260905194819 98 312 0.0 2.0 0.00 0.00 0.00 47 1013.9
20260905194313 97 311 1.0 1.0 0.00 0.00 0.00 45 1014.1
20260905193812 97 316 1.0 2.0 0.00 0.00 0.00 46 1013.9
20260905193307 98 316 1.0 1.0 0.00 0.00 0.00 45 1014.1
20260905192803 97 318 0.0 2.0 0.00 0.00 0.00 44 1014.1
20260905192259 98 307 1.0 5.0 0.00 0.00 0.00 43 1014.0
20260905191758 98 156 2.0 3.0 0.00 0.00 0.00 44 1014.2
20260905191256 99 149 1.0 1.0 0.00 0.00 0.00 43 1014.4
20260905190755 98 150 2.0 2.0 0.00 0.00 0.00 44 1014.4
20260905190249 96 151 0.0 0.0 0.00 0.00 0.00 43 1014.3
20260905185747 96 173 0.0 2.0 0.00 0.00 0.00 43 1014.4
20260905185242 96 175 0.0 2.0 0.00 0.00 0.00 45 1014.6
20260905184736 96 203 0.0 2.0 0.00 0.00 0.00 43 1014.4
20260905184236 95 310 1.0 2.0 0.00 0.00 0.00 44 1014.6
20260905183730 95 310 2.0 2.0 0.00 0.00 0.00 44 1014.7
20260905183225 95 311 0.0 1.0 0.00 0.00 0.00 48 1014.8
20260905182719 96 311 0.0 0.0 0.00 0.00 0.00 47 1014.9
20260905182219 96 311 0.0 0.0 0.00 0.00 0.00 47 1014.9
20260905181714 96 318 4.0 5.0 0.00 0.00 0.00 44 1014.9
20260905181213 97 317 0.0 3.0 0.00 0.00 0.00 44 1015.2
20260905180708 96 254 0.0 3.0 0.00 0.00 0.00 44 1015.1
20260905180203 95 313 1.0 3.0 0.00 0.00 0.00 45 1015.0
20260905175703 95 164 1.0 2.0 0.00 0.00 0.00 47 1015.0
20260905175157 96 164 2.0 3.0 0.00 0.00 0.00 46 1015.1
20260905174653 95 164 2.0 2.0 0.00 0.00 0.00 47 1015.1
20260905174149 96 165 3.0 5.0 0.00 0.00 0.00 48 1015.3
20260905173644 94 169 2.0 2.0 0.00 0.00 0.00 47 1015.4
20260905173140 94 178 2.0 3.0 0.00 0.00 0.00 48 1015.3
20260905172639 93 315 0.0 1.0 0.00 0.00 0.00 50 1015.6
20260905172133 95 315 3.0 5.0 0.00 0.00 0.00 48 1015.5
20260905171630 95 158 1.0 3.0 0.00 0.00 0.00 47 1015.8
20260905171126 95 158 0.0 0.0 0.00 0.00 0.00 53 1015.8